Location: Newark
(8.3333°N, 39.1667°E)
Time: 10:31:26
(UTC+00:00)

OTV 5 (USA 277) - Visible Passes

Search period start: 21 July 2019 00:00
Search period end: 31 July 2019 00:00
Orbit: 299 x 335 km, 54.5° (Epoch: 13 July)

Date Brightness Start Highest point End Pass type
(mag) Time Alt. Az. Time Alt. Az. Time Alt. Az.
26 Jul ? 02:19:49 10° SSE 02:21:38 17° ESE 02:23:27 10° ENE visible
27 Jul ? 02:33:57 14° SW 02:36:06 77° WNW 02:38:42 10° NNE visible
28 Jul ? 02:49:11 10° W 02:50:40 14° NW 02:52:08 10° NNW visible
29 Jul ? 01:32:40 17° ENE 01:32:40 17° ENE 01:33:30 10° NE visible
30 Jul ? 01:47:23 14° N 01:47:23 14° N 01:47:53 10° N visible
